Regional Weather Roundup
Issued by NWS

Home | Current Version | Previous Version | Text Only | Print | Product List | Glossary On
Versions: 1 2 3 4 5 6 7 8 9 10 11 12 13 14 15 16 17 18 19 20 21 22 23 24 25 26 27 28 29 30 31 32 33 34 35 36 37 38 39 40 41 42 43 44 45 46 47 48 49 50
109
ASUS44 KOUN 310510
RWROK

WEATHER ROUNDUP FOR OKLAHOMA
NATIONAL WEATHER SERVICE NORMAN OK
1200 AM CDT SUN JUL 31 2016

NOTE: "FAIR" INDICATES FEW OR NO CLOUDS BELOW 12,000 FEET WITH NO
      SIGNIFICANT WEATHER AND/OR OBSTRUCTIONS TO VISIBILITY.

OKZ001>007-009>012-014-015-017-310600-
NORTHWEST OKLAHOMA AND THE PANHANDLE

CITY           SKY/WX    TMP DP  RH WIND       PRES   REMARKS
GAGE           CLEAR     78  70  76 S12       29.94F
GUYMON         MOCLDY    81  61  50 S14       29.94S
ENID/WOODRING  CLEAR     77  73  88 SE5       29.92S
$$

OKZ016-021>023-033>039-044-045-310600-
SOUTHWEST OKLAHOMA

CITY           SKY/WX    TMP DP  RH WIND       PRES   REMARKS
LAWTON/REGL    PTCLDY    79  70  74 S7        29.92S
LAWTON/FT SILL CLEAR     81  70  70 S8        29.91S
FREDERICK        N/A    N/A N/A N/A MISG      29.89R
CLINTON        PTCLDY    76  67  73 S6        29.96S
HOBART         CLEAR     78  65  63 S9        29.94R
ALTUS AFB      PTCLDY    76  67  73 CALM      29.92S
$$

OKZ018>020-024>031-310600-
CENTRAL OKLAHOMA

CITY           SKY/WX    TMP DP  RH WIND       PRES   REMARKS
OKLAHOMA CITY  CLEAR     76  71  85 SE6       29.94S
OKC/WILEY POST CLEAR     80  69  69 SE8       29.94S
OKC/TINKER AFB CLEAR     75  69  81 SE8       29.94R
STILLWATER     CLEAR     78  71  79 SE8       29.93F
GUTHRIE        CLEAR     78  72  81 SE7       29.93S
$$

OKZ008-013-054>072-310600-
NORTHEAST OKLAHOMA

CITY           SKY/WX    TMP DP  RH WIND       PRES   REMARKS
TULSA          PTCLDY    77  73  87 SE6       29.93S
TULSA/JONES    CLOUDY    80  74  81 S5        29.94S
PONCA CITY     CLEAR     77  70  79 SE9       29.93S
BARTLESVILLE   CLEAR     71  69  93 CALM      29.95F
MUSKOGEE       PTCLDY    77  73  87 SE8       29.96F
$$

OKZ032-040>043-046>053-073>077-310600-
SOUTH CENTRAL/SOUTHEAST OKLAHOMA

CITY           SKY/WX    TMP DP  RH WIND       PRES   REMARKS
ARDMORE/DWNTWN CLEAR     82  63  51 S6        29.92S
MCALESTER      CLEAR     79  69  71 SE6       29.97S
$$





USA.gov is the U.S. government's official web portal to all federal, state and local government web resources and services.